This is the latest recevied weather packets stored in our database for station/object KN6ZYR. If no packets are shown the sender has not sent any weather packets the latest 10 day(s).
| Time | Temp. | Humidity | Pressure | Rain* | Wind** | Luminosity | Snow |
|---|---|---|---|---|---|---|---|
| 1777499042 | 22.22° C | 18% | 1020.7 hPa | 0 mm | - | 671 W/m² | - |
| 1777498738 | 22.22° C | 16% | 1020.8 hPa | 0 mm | - | 682 W/m² | - |
| 1777498435 | 22.22° C | 15% | 1020.9 hPa | 0 mm | - | 694 W/m² | - |
| 1777498132 | 22.22° C | 16% | 1020.9 hPa | 0 mm | - | 703 W/m² | - |
| 1777497829 | 21.11° C | 16% | 1021 hPa | 0 mm | - | 711 W/m² | - |
| 1777497525 | 21.67° C | 16% | 1021.2 hPa | 0 mm | - | 719 W/m² | - |
| 1777497221 | 21.67° C | 16% | 1021.2 hPa | 0 mm | - | 729 W/m² | - |
| 1777496918 | 21.67° C | 17% | 1021.4 hPa | 0 mm | - | 736 W/m² | - |
| 1777496615 | 21.11° C | 16% | 1021.3 hPa | 0 mm | - | 744 W/m² | - |
| 1777496312 | 22.22° C | 15% | 1021.5 hPa | 0 mm | - | 750 W/m² | - |
| 1777496007 | 21.11° C | 16% | 1021.2 hPa | 0 mm | - | 758 W/m² | - |
| 1777495704 | 21.67° C | 17% | 1021.3 hPa | 0 mm | - | 763 W/m² | - |
| 1777495400 | 21.67° C | 18% | 1021.7 hPa | 0 mm | - | 769 W/m² | - |
| 1777495096 | 21.11° C | 18% | 1021.4 hPa | 0 mm | - | 775 W/m² | - |
| 1777494794 | 20.56° C | 17% | 1021.5 hPa | 0 mm | - | 778 W/m² | - |
| 1777494491 | 21.11° C | 18% | 1021.6 hPa | 0 mm | - | 782 W/m² | - |
| 1777494188 | 20.56° C | 18% | 1021.8 hPa | 0 mm | - | 787 W/m² | - |
| 1777493885 | 20° C | 19% | 1021.7 hPa | 0 mm | - | 789 W/m² | - |
| 1777493583 | 20° C | 19% | 1022.1 hPa | 0 mm | - | 793 W/m² | - |
| 1777493281 | 20° C | 19% | 1022.2 hPa | 0 mm | - | 796 W/m² | - |
| 1777492976 | 20.56° C | 19% | 1021.9 hPa | 0 mm | - | 797 W/m² | - |
| 1777492674 | 20° C | 19% | 1022.2 hPa | 0 mm | - | 798 W/m² | - |
| 1777492373 | 20° C | 19% | 1022.2 hPa | 0 mm | - | 800 W/m² | - |
| 1777492071 | 20.56° C | 19% | 1022.2 hPa | 0 mm | - | 802 W/m² | - |
| 1777491767 | 20.56° C | 21% | 1022.5 hPa | 0 mm | - | 800 W/m² | - |
* Rain latest hour (hover to see other rain measurements)
** Current wind speed in m/s (hover to see current wind gust speed)